User: anonymous   Login
Location: Wayah Bald
(35.1806°N, 83.5603°W)
Time: 23:38:17
(UTC-04:00)
Language:

Meteor 1-27 Rocket - Orbit

View from above orbital plane
View from above orbital plane
View from above satellite
View from above satellite

Ground track
Ground track

The orbit data is extracted from the following two-line orbital elements,

1  9904U 77024B   17175.36389665 -.00000042 +00000-0 -31873-4 0  9993
2  9904 081.2620 122.9135 0054280 309.5031 050.1344 14.06842619063586
Epoch (UTC): 24 June 2017 08:44:00
Eccentricity: 0.0054280
inclination: 81.2620°
perigee height: 831 km
apogee height: 909 km
right ascension of ascending node: 122.9135°
argument of perigee: 309.5031°
revolutions per day: 14.06842619
mean anomaly at epoch: 50.1344°
orbit number at epoch: 6358

The dashed part of the orbit path shows where the satellite is in the earth's shadow,  

DLR